Date String (YYYY-MM-DD hh:mm:ss) UTC,Instrument flags,Ambient pressure (hPa),Sample flow (lpm),Bypass flow (lpm),Sample temperature (°C),Ambient temperature (°C),ASC tube jacket temperature (°C),LED temperature (°C),Box temperature (°C),Sample RH (%),Span deviation,Mass concentration (μg/m³),Mass concentration (μg/m³),Mass concentration (μg/m³)
DateTimeUTC,F1_M11,P_M11,Q1_M11,Q2_M11,T1_M11,T2_M11,T3_M11,T4_M11,T5_M11,U1_M11,ZSPAN_M11,X0_M11,X2_M11,X1_M11
2021-10-26 22:00:00,,0810.9,5.01,0.00,28.5,27.4,00.0,37.7,30.2,10.3,0000.0,0001.35,0000.41,0000.28
2021-10-26 22:01:00,,0810.9,4.99,0.00,28.5,27.4,00.0,37.7,30.2,10.4,0000.0,0000.95,0000.38,0000.29
2021-10-26 22:02:00,,0810.9,4.99,0.00,28.5,27.4,00.0,37.7,30.2,10.5,0000.0,0001.02,0000.39,0000.29
2021-10-26 22:03:00,,0811.0,5.01,0.00,28.5,27.5,00.0,37.7,30.3,10.5,0000.0,0000.99,0000.40,0000.29
2021-10-26 22:04:00,,0811.0,4.99,0.00,28.5,27.5,00.0,37.7,30.3,10.6,0000.0,0000.99,0000.40,0000.29
2021-10-26 22:05:00,,0811.0,5.01,0.00,28.5,27.5,00.0,37.7,30.3,10.6,0000.0,0000.84,0000.38,0000.29
2021-10-26 22:06:00,,0811.0,5.01,0.00,28.5,27.5,00.0,37.7,30.3,10.6,0000.0,0000.72,0000.37,0000.28
2021-10-26 22:07:00,,0811.0,5.00,0.00,28.6,27.6,00.0,37.7,30.3,10.7,0000.0,0000.70,0000.37,0000.28
2021-10-26 22:08:00,,0811.2,4.99,0.00,28.6,27.6,00.0,37.7,30.3,10.7,0000.0,0000.65,0000.35,0000.28
2021-10-26 22:09:00,,0811.2,5.00,0.00,28.6,27.7,00.0,37.7,30.4,10.7,0000.0,0000.65,0000.36,0000.28
2021-10-26 22:10:00,,0811.2,5.02,0.00,28.6,27.7,00.0,37.7,30.4,10.8,0000.0,0000.65,0000.36,0000.29
2021-10-26 22:11:00,,0811.2,5.00,0.00,28.6,27.7,00.0,37.7,30.4,10.8,0000.0,0000.66,0000.37,0000.29
2021-10-26 22:12:00,,0811.2,4.99,0.00,28.6,27.7,00.0,37.7,30.4,10.9,0000.0,0000.72,0000.40,0000.29
2021-10-26 22:13:00,,0811.2,5.00,0.00,28.6,27.7,00.0,37.7,30.4,10.9,0000.0,0000.70,0000.40,0000.30
2021-10-26 22:14:00,,0811.2,5.00,0.00,28.7,27.7,00.0,37.7,30.4,10.9,0000.0,0000.68,0000.40,0000.30
2021-10-26 22:15:00,,0811.2,4.99,0.00,28.7,27.8,00.0,37.7,30.5,10.8,0000.0,0001.18,0000.40,0000.30
2021-10-26 22:16:00,,0811.3,5.00,0.00,28.7,27.8,00.0,37.7,30.5,10.8,0000.0,0001.54,0000.41,0000.30
2021-10-26 22:17:00,,0811.3,5.02,0.00,28.7,27.8,00.0,37.7,30.5,10.8,0000.0,0001.62,0000.42,0000.31
2021-10-26 22:18:00,,0811.2,4.99,0.00,28.7,27.8,00.0,37.8,30.5,10.7,0000.0,0002.76,0000.42,0000.31
2021-10-26 22:19:00,,0811.2,4.99,0.00,28.7,27.9,00.0,37.8,30.5,10.7,0000.0,0002.75,0000.41,0000.30
2021-10-26 22:20:00,,0811.2,5.01,0.00,28.7,27.9,00.0,37.8,30.6,10.6,0000.0,0002.76,0000.42,0000.30
2021-10-26 22:21:00,,0811.3,5.01,0.00,28.7,27.9,00.0,37.8,30.6,10.6,0000.0,0002.75,0000.42,0000.30
2021-10-26 22:22:00,,0811.4,5.00,0.00,28.7,27.9,00.0,37.8,30.5,10.7,0000.0,0002.96,0000.41,0000.30
2021-10-26 22:23:00,,0811.4,5.00,0.00,28.8,27.9,00.0,37.8,30.6,10.7,0000.0,0003.85,0000.38,0000.29
2021-10-26 22:24:00,,0811.5,4.99,0.00,28.8,28.0,00.0,37.8,30.6,10.8,0000.0,0003.78,0000.36,0000.28
2021-10-26 22:25:00,,0811.5,5.02,0.00,28.8,28.0,00.0,37.8,30.6,10.8,0000.0,0003.75,0000.35,0000.28
2021-10-26 22:26:00,,0811.5,5.01,0.00,28.8,28.0,00.0,37.8,30.6,10.9,0000.0,0003.55,0000.37,0000.27
2021-10-26 22:27:00,,0811.5,4.99,0.00,28.8,28.0,00.0,37.9,30.6,10.9,0000.0,0003.18,0000.40,0000.28
2021-10-26 22:28:00,,0811.6,5.00,0.00,28.8,28.0,00.0,37.9,30.6,10.9,0000.0,0003.18,0000.39,0000.28
2021-10-26 22:29:00,,0811.5,4.99,0.00,28.8,27.9,00.0,37.9,30.6,10.7,0000.0,0002.31,0000.40,0000.29
2021-10-26 22:30:00,,0811.5,5.01,0.00,28.8,27.9,00.0,37.9,30.6,10.7,0000.0,0002.33,0000.43,0000.29
2021-10-26 22:31:00,,0811.5,5.00,0.00,28.8,27.9,00.0,37.9,30.6,10.6,0000.0,0002.39,0000.42,0000.29
2021-10-26 22:32:00,,0811.5,5.00,0.00,28.8,27.9,00.0,37.9,30.6,10.6,0000.0,0002.50,0000.45,0000.29
2021-10-26 22:33:00,,0811.5,5.00,0.00,28.8,27.9,00.0,37.9,30.6,10.7,0000.0,0002.52,0000.47,0000.30
2021-10-26 22:34:00,,0811.4,5.00,0.00,28.8,27.9,00.0,37.9,30.5,10.9,0000.0,0001.53,0000.49,0000.30
2021-10-26 22:35:00,,0811.3,5.01,0.00,28.8,27.9,00.0,37.9,30.5,10.9,0000.0,0001.63,0000.53,0000.30
2021-10-26 22:36:00,,0811.4,4.99,0.00,28.8,27.8,00.0,37.9,30.5,10.9,0000.0,0001.66,0000.55,0000.30
2021-10-26 22:37:00,,0811.4,4.99,0.00,28.8,27.9,00.0,37.9,30.5,10.9,0000.0,0001.55,0000.51,0000.30
2021-10-26 22:38:00,,0811.5,5.01,0.00,28.8,27.9,00.0,37.9,30.5,11.0,0000.0,0001.36,0000.49,0000.29
2021-10-26 22:39:00,,0811.5,5.00,0.00,28.8,27.8,00.0,37.9,30.5,11.1,0000.0,0001.34,0000.48,0000.28
2021-10-26 22:40:00,,0811.5,5.00,0.00,28.8,27.9,00.0,37.9,30.5,11.1,0000.0,0001.52,0000.48,0000.27
2021-10-26 22:41:00,,0811.6,5.01,0.00,28.8,27.9,00.0,37.9,30.5,11.2,0000.0,0001.73,0000.48,0000.27
2021-10-26 22:42:00,,0811.6,4.99,0.00,28.8,27.9,00.0,37.9,30.5,11.2,0000.0,0001.68,0000.49,0000.26
2021-10-26 22:43:00,,0811.7,5.00,0.00,28.8,27.9,00.0,37.9,30.5,11.1,0000.0,0001.57,0000.46,0000.26
2021-10-26 22:44:00,,0811.8,4.98,0.00,28.8,27.9,00.0,37.9,30.6,11.1,0000.0,0001.49,0000.45,0000.25
2021-10-26 22:45:00,,0811.8,5.00,0.00,28.8,27.9,00.0,37.9,30.6,11.0,0000.0,0001.54,0000.45,0000.24
2021-10-26 22:46:00,,0811.9,5.00,0.00,28.8,27.9,00.0,37.9,30.5,11.3,0000.0,0001.51,0000.43,0000.24
2021-10-26 22:47:00,,0812.1,5.01,0.00,28.8,27.9,00.0,37.9,30.6,12.7,0000.0,0001.78,0000.44,0000.24
2021-10-26 22:48:00,,0812.0,5.00,0.00,28.8,27.9,00.0,37.9,30.6,13.7,0000.0,0002.15,0000.51,0000.25
2021-10-26 22:49:00,,0812.1,5.00,0.00,28.8,28.0,00.0,37.9,30.6,13.9,0000.0,0002.30,0000.57,0000.26
2021-10-26 22:50:00,,0812.1,4.99,0.00,28.8,28.0,00.0,37.9,30.6,14.1,0000.0,0002.56,0000.67,0000.26
2021-10-26 22:51:00,,0812.2,5.00,0.00,28.8,28.0,00.0,37.9,30.6,14.2,0000.0,0004.52,0000.75,0000.27
2021-10-26 22:52:00,,0812.1,5.01,0.00,28.9,28.0,00.0,37.9,30.7,14.2,0000.0,0006.03,0000.80,0000.27
2021-10-26 22:53:00,,0812.1,4.99,0.00,28.9,28.0,00.0,37.9,30.6,14.3,0000.0,0007.23,0000.84,0000.28
2021-10-26 22:54:00,,0812.2,5.01,0.00,28.9,28.0,00.0,38.0,30.6,14.6,0000.0,0008.50,0000.95,0000.29
2021-10-26 22:55:00,,0812.2,4.99,0.00,28.9,28.0,00.0,38.0,30.7,14.7,0000.0,0008.99,0001.06,0000.31
2021-10-26 22:56:00,,0812.2,4.99,0.00,28.9,28.0,00.0,38.0,30.7,14.8,0000.0,0009.21,0001.12,0000.32
2021-10-26 22:57:00,,0812.3,5.01,0.00,28.8,28.0,00.0,38.0,30.6,14.9,0000.0,0010.16,0001.23,0000.32
2021-10-26 22:58:00,,0812.3,5.01,0.00,28.8,28.0,00.0,38.0,30.6,14.9,0000.0,0010.69,0001.35,0000.34
2021-10-26 22:59:00,,0812.3,4.99,0.00,28.8,28.0,00.0,38.0,30.6,15.0,0000.0,0010.87,0001.43,0000.35
